DELTA 1 DEB, 12222

Orbit data source: Space-Track

DELTA 1 DEB, 12222 is space debris in SSO originally from a launch on Sun, 05 Mar 1978 UTC launched from the Air Force Western Test Range (AFWTR). Debris objects in space refer to the collection of defunct objects orbiting the Earth. Examples of debris include non-operational satellites, rocket bodies, and fragments generated from explosions, collisions, or faulty payload assembly.

Loading next visibility...
Identifier
12222, 1978-026BP
Orbit
SSO
Country
Flag of USUS
Related business
Manufacturer
Unknown
Mission
Spacecraft
Bus & Motor
Unknown
Mass
Unknown
Launch date (UTC)
1978-03-05 (48 years ago)
Launch vehicle
Unknown
Launch site
Air Force Western Test Range (AFWTR)
Object type
Payload
Rocket body
Debris
Shape & HBR
Unknown shape, 0.1 m
Radar Cross Section
Medium (>0.1 m² and <1 m²)

Expand to show TLE details & history
Last TLE update: 2 days ago

TLE from 2 days ago
0 DELTA 1 DEB
1 12222U 78026BP  26171.26899336  .00000228  00000-0  20616-3 0  9995
2 12222  99.0586  87.9740 0071792 124.7166 236.0784 13.92431777301745
Epoch: 2026-06-20T06:27Z
TLE epoch observation values (Epoch: 2026-06-20T06:27:21.026Z)
Latitude
0.00001°
Longitude
82.65035°
Altitude
952.49 km
Speed
7.361 km/s
True Right ascension
05h 51m 53s
True Declination
0° 00' 00"
Sunlit
Object was in daylight at epoch
Visualization orbit readout
Latitude
Unknown
Longitude
Unknown
Altitude
Unknown
Speed
Unknown
Apparent Right ascension
Unknown
Apparent Declination
Unknown
Sunlit
N/A
Visualization observer readout
Local Sidereal Time
01:45:27
Azimuth
Unknown
Elevation
Unknown
Doppler factor
Unknown
Orbital elements
Apogee altitude
969.709 km
Perigee altitude
864.958 km
Semi-major axis
7,295.47 km
Eccentricity
0.00718
Inclination
99.0586°
RAAN
87.974°
Arg. of periapsis
124.7166°
True anomaly
235.39916°
Mean anomaly
236.0784°
Eccentric anomaly
235.73844°
Mean motion
3.48308 °/min
Orbital period
103.36 mins
BSTAR
0.00020616
Loading maneuver chart data...
Computing Atmospheric mass density...

Documentation

Showing up to 5 results
|